CW8468 Weather Reports


Display with metric or nautical units.
time (UTC)temp
F
wind
direction
speed
MPH
gust
MPH
rain 1hr
in
rain 24hr
in
rain mn
in
humidity
%
barometer
mb
20260504203024 81 179 4.0 10.0 0.00 0.00 0.00 56 1011.4
20260504202501 81 207 4.0 10.0 0.00 0.00 0.00 57 1011.5
20260504202000 81 104 4.0 10.0 0.00 0.00 0.00 58 1011.7
20260504201515 82 183 3.0 10.0 0.00 0.00 0.00 56 1011.8
20260504200500 81 156 3.0 12.0 0.00 0.00 0.00 57 1011.9
20260504200026 80 202 3.0 12.0 0.00 0.00 0.00 57 1012.1
20260504195502 80 162 3.0 11.0 0.00 0.00 0.00 57 1012.1
20260504195002 80 156 4.0 8.0 0.00 0.00 0.00 58 1012.2
20260504194517 80 134 4.0 7.0 0.00 0.00 0.00 56 1012.2
20260504194004 81 160 3.0 10.0 0.00 0.00 0.00 56 1012.1
20260504193503 82 108 3.0 10.0 0.00 0.00 0.00 59 1012.3
20260504193027 82 186 3.0 9.0 0.00 0.00 0.00 55 1012.4
20260504192501 82 270 3.0 8.0 0.00 0.00 0.00 56 1012.3
20260504192004 82 244 3.0 10.0 0.00 0.00 0.00 55 1012.4
20260504191516 81 122 3.0 10.0 0.00 0.00 0.00 60 1012.5
20260504191002 80 260 4.0 11.0 0.00 0.00 0.00 56 1012.5
20260504190026 80 208 5.0 14.0 0.00 0.00 0.00 57 1012.7
20260504185500 80 274 4.0 9.0 0.00 0.00 0.00 57 1012.9
20260504185002 80 206 4.0 10.0 0.00 0.00 0.00 55 1013.0
20260504184515 80 156 4.0 11.0 0.00 0.00 0.00 56 1012.9
20260504184001 80 162 4.0 10.0 0.00 0.00 0.00 56 1013.0
20260504183500 80 173 4.0 11.0 0.00 0.00 0.00 56 1013.0
20260504181516 80 140 4.0 13.0 0.00 0.00 0.00 59 1013.1
20260504181001 80 177 4.0 13.0 0.00 0.00 0.00 59 1013.2
20260504180501 80 130 4.0 10.0 0.00 0.00 0.00 59 1013.4
20260504180026 79 179 4.0 11.0 0.00 0.00 0.00 60 1013.4
20260504175000 79 142 4.0 11.0 0.00 0.00 0.00 57 1013.6
20260504174515 80 179 4.0 11.0 0.00 0.00 0.00 57 1013.6
20260504174001 79 85 4.0 9.0 0.00 0.00 0.00 59 1013.7
20260504173500 78 217 5.0 12.0 0.00 0.00 0.00 59 1013.8
20260504173027 79 170 5.0 11.0 0.00 0.00 0.00 57 1013.8
20260504172000 78 158 4.0 11.0 0.00 0.00 0.00 59 1013.9
20260504171515 78 166 4.0 11.0 0.00 0.00 0.00 58 1014.2
20260504171001 78 141 4.0 11.0 0.00 0.00 0.00 59 1014.3
20260504141002 70 163 3.0 9.0 0.00 0.00 0.00 65 1015.0
20260504140500 70 220 3.0 9.0 0.00 0.00 0.00 65 1015.2
20260504130459 64 108 2.0 4.0 0.00 0.00 0.00 73 1015.1
20260504110459 57 131 0.0 1.0 0.00 0.00 0.00 81 1014.5
20260504100500 58 145 0.0 1.0 0.00 0.00 0.00 81 1014.9
20260504081959 61 186 0.0 1.0 0.00 0.00 0.00 75 1015.4
20260504080959 60 186 0.0 2.0 0.00 0.00 0.00 77 1015.6
20260504080458 60 166 0.0 1.0 0.00 0.00 0.00 77 1015.6
20260504050503 63 191 0.0 1.0 0.00 0.00 0.00 68 1017.5
20260504045502 64 193 0.0 2.0 0.00 0.00 0.00 67 1017.6
20260504045004 64 186 1.0 3.0 0.00 0.00 0.00 67 1017.5
20260504044003 65 171 1.0 3.0 0.00 0.00 0.00 66 1017.6
20260504043503 65 183 0.0 2.0 0.00 0.00 0.00 65 1017.7
20260504043026 65 179 0.0 2.0 0.00 0.00 0.00 65 1017.5
20260504042502 65 179 0.0 2.0 0.00 0.00 0.00 64 1017.6
20260504042002 65 187 1.0 2.0 0.00 0.00 0.00 64 1017.6
20260504041517 65 134 1.0 3.0 0.00 0.00 0.00 65 1017.5
20260504041003 65 191 1.0 3.0 0.00 0.00 0.00 63 1017.7
20260504040502 66 142 1.0 2.0 0.00 0.00 0.00 63 1017.7
20260504040026 66 175 1.0 3.0 0.00 0.00 0.00 62 1017.6
20260504035503 66 184 1.0 3.0 0.00 0.00 0.00 62 1017.6
20260504034517 67 159 1.0 7.0 0.00 0.00 0.00 60 1017.7
20260504034004 67 186 1.0 7.0 0.00 0.00 0.00 59 1017.6
20260504033025 67 199 2.0 4.0 0.00 0.00 0.00 59 1017.7
20260504032004 67 179 1.0 3.0 0.00 0.00 0.00 58 1017.7
20260504031517 68 157 1.0 5.0 0.00 0.00 0.00 58 1017.6
20260504031002 68 187 1.0 5.0 0.00 0.00 0.00 57 1017.6
20260504030502 68 182 2.0 4.0 0.00 0.00 0.00 57 1017.6
20260504030028 68 203 2.0 5.0 0.00 0.00 0.00 57 1017.5
20260504025502 68 156 2.0 4.0 0.00 0.00 0.00 56 1017.5
20260504025003 68 158 1.0 3.0 0.00 0.00 0.00 56 1017.2
20260504024003 69 145 2.0 7.0 0.00 0.00 0.00 56 1017.2
20260504023502 69 139 2.0 7.0 0.00 0.00 0.00 54 1017.1
20260504023025 69 155 2.0 7.0 0.00 0.00 0.00 55 1017.2
20260504022502 70 146 2.0 7.0 0.00 0.00 0.00 53 1017.2
20260504022004 70 171 2.0 7.0 0.00 0.00 0.00 53 1017.3
20260504021516 70 156 2.0 7.0 0.00 0.00 0.00 52 1017.3
20260504021002 70 170 3.0 7.0 0.00 0.00 0.00 52 1017.2
20260504020501 70 159 3.0 7.0 0.00 0.00 0.00 52 1017.1
20260504020030 71 189 2.0 7.0 0.00 0.00 0.00 52 1017.0
20260504015503 71 182 2.0 8.0 0.00 0.00 0.00 51 1017.0
20260504015003 71 180 2.0 8.0 0.00 0.00 0.00 51 1017.0
20260504014517 71 185 3.0 6.0 0.00 0.00 0.00 50 1017.0
20260504014003 71 166 2.0 7.0 0.00 0.00 0.00 50 1016.9
20260504013503 72 168 3.0 7.0 0.00 0.00 0.00 50 1016.8
20260504013029 72 167 2.0 7.0 0.00 0.00 0.00 51 1016.8
20260504012502 72 168 2.0 5.0 0.00 0.00 0.00 50 1016.9
20260504012004 72 171 3.0 7.0 0.00 0.00 0.00 49 1016.7
20260504011517 72 162 2.0 5.0 0.00 0.00 0.00 49 1016.6
20260504010502 73 179 2.0 8.0 0.00 0.00 0.00 48 1016.7
20260504010025 73 204 2.0 4.0 0.00 0.00 0.00 48 1016.7
20260504005002 73 135 2.0 9.0 0.00 0.00 0.00 48 1016.6
20260504004516 74 166 3.0 9.0 0.00 0.00 0.00 46 1016.6
20260504003025 74 155 2.0 7.0 0.00 0.00 0.00 46 1016.7
20260504002501 75 160 2.0 10.0 0.00 0.00 0.00 46 1016.7
20260504002002 75 214 3.0 10.0 0.00 0.00 0.00 45 1016.6
20260504001516 75 157 4.0 8.0 0.00 0.00 0.00 44 1016.7
20260504001001 76 111 4.0 9.0 0.00 0.00 0.00 43 1016.7
20260504000501 76 175 3.0 10.0 0.00 0.00 0.00 43 1016.6
20260504000024 76 200 3.0 10.0 0.00 0.00 0.00 41 1016.7
20260503235500 77 200 3.0 7.0 0.00 0.00 0.00 38 1016.7
20260503235002 77 154 2.0 7.0 0.00 0.00 0.00 35 1016.8
20260503234516 77 89 2.0 7.0 0.00 0.00 0.00 37 1016.8
20260503234002 78 227 2.0 8.0 0.00 0.00 0.00 36 1016.7
20260503233501 78 139 3.0 8.0 0.00 0.00 0.00 35 1016.8
20260503233025 78 144 2.0 8.0 0.00 0.00 0.00 36 1016.9
20260503232500 78 181 3.0 7.0 0.00 0.00 0.00 36 1016.8
20260503232002 78 98 3.0 7.0 0.00 0.00 0.00 34 1016.9
20260503231515 79 175 3.0 8.0 0.00 0.00 0.00 33 1017.0
20260503231002 79 250 3.0 8.0 0.00 0.00 0.00 36 1016.9
20260503230502 79 204 3.0 6.0 0.00 0.00 0.00 34 1016.9
20260503230027 79 152 3.0 8.0 0.00 0.00 0.00 37 1016.9
20260503225001 79 148 4.0 10.0 0.00 0.00 0.00 35 1017.0
20260503224516 79 142 3.0 10.0 0.00 0.00 0.00 35 1017.1
20260503223500 79 2 3.0 7.0 0.00 0.00 0.00 35 1017.1
20260503222501 79 196 2.0 8.0 0.00 0.00 0.00 36 1017.3
20260503222002 79 119 2.0 8.0 0.00 0.00 0.00 36 1017.3
20260503221515 80 193 2.0 5.0 0.00 0.00 0.00 36 1017.6
20260503221002 80 195 2.0 5.0 0.00 0.00 0.00 35 1017.6
20260503220501 80 138 2.0 8.0 0.00 0.00 0.00 37 1017.6
20260503220023 80 121 2.0 8.0 0.00 0.00 0.00 36 1017.5
20260503215500 80 102 2.0 4.0 0.00 0.00 0.00 36 1017.6
20260503215000 80 244 3.0 7.0 0.00 0.00 0.00 35 1017.5
20260503214515 81 160 3.0 7.0 0.00 0.00 0.00 33 1017.5
20260503214000 81 116 3.0 7.0 0.00 0.00 0.00 35 1017.6
20260503212500 80 103 3.0 7.0 0.00 0.00 0.00 34 1018.0
20260503211515 80 158 4.0 9.0 0.00 0.00 0.00 35 1018.2
20260503210500 81 173 2.0 8.0 0.00 0.00 0.00 35 1018.2
20260503210024 81 155 2.0 5.0 0.00 0.00 0.00 38 1018.2
20260503205459 81 313 3.0 8.0 0.00 0.00 0.00 35 1018.2
20260503204514 80 75 2.0 7.0 0.00 0.00 0.00 35 1018.4